Regional Weather Roundup
Issued by NWS

Home | Current Version | Previous Version | Text Only | Print | Product List | Glossary On
Versions: 1 2 3 4 5 6 7 8 9 10 11 12 13 14 15 16 17 18 19 20 21 22 23 24 25 26 27 28 29 30 31 32 33 34 35 36 37 38 39 40 41 42 43 44 45 46 47 48 49 50
000
ASUS44 KFWD 210615
RWRTX
NORTH TEXAS HOURLY WEATHER ROUNDUP
NATIONAL WEATHER SERVICE FORT WORTH TX
1200 AM CST SUN DEC 21 2014

NOTE: "FAIR" INDICATES FEW OR NO CLOUDS BELOW 12,000 FEET WITH NO
SIGNIFICANT WEATHER AND/OR OBSTRUCTIONS TO VISIBILITY.

TXZ118-119-210700-
DALLAS/FORT WORTH METROPLEX

CITY           SKY/WX    TMP DP  RH WIND       PRES   REMARKS
DFW AIRPORT    CLOUDY    47  44  90 SE3       30.18S
6HR MIN TEMP:  46; 6HR MAX TEMP:  47;

DALLAS LOVE    CLOUDY    48  44  86 E6        30.18F
6HR MIN TEMP:  48; 6HR MAX TEMP:  48;

FTW MEACHAM    CLOUDY    48  43  82 SE3       30.17F HAZE
6HR MIN TEMP:  47; 6HR MAX TEMP:  48;

DAL-EXECUTIVE  CLOUDY    49  44  83 E3        30.17F
6HR MIN TEMP:  48; 6HR MAX TEMP:  49;

FTW-ALLIANCE   CLOUDY    46  43  89 SE3       30.17F
6HR MIN TEMP:  45; 6HR MAX TEMP:  46;

FTW-SPINKS     CLOUDY    47  44  90 CALM      30.19F FOG
6HR MIN TEMP:  47; 6HR MAX TEMP:  47;

ARLINGTON      CLOUDY    49  44  83 CALM      30.18S
6HR MIN TEMP:  48; 6HR MAX TEMP:  49;

GRAND PRAIRIE  CLOUDY   N/A N/A N/A MISG      30.20S
ADDISON        CLOUDY    48  48 100 CALM      30.19F
6HR MIN TEMP:  47; 6HR MAX TEMP:  48;

MESQUITE       CLOUDY    47  45  93 CALM      30.19F
6HR MIN TEMP:  47; 6HR MAX TEMP:  47;

LANCASTER      CLOUDY    46  44  90 CALM      30.20S
6HR MIN TEMP:  46; 6HR MAX TEMP:  47;

$$

TXZ091>094-102>105-117-120-121-131>134-210700-
NORTH CENTRAL TEXAS

CITY           SKY/WX    TMP DP  RH WIND       PRES   REMARKS
SHRMAN/DENISON CLOUDY    46  46  98 CALM      30.19F
6HR MIN TEMP:  46; 6HR MAX TEMP:  46;

GAINESVILLE    CLOUDY    44  42  93 SE3       30.19F
6HR MIN TEMP:  44; 6HR MAX TEMP:  45;

BOWIE          CLOUDY    44  43  97 CALM      30.15F FOG
6HR MIN TEMP:  43; 6HR MAX TEMP:  44;

BRIDGEPORT     CLOUDY    46  44  94 SE5       30.18F
6HR MIN TEMP:  46; 6HR MAX TEMP:  46;

DECATUR        MOCLDY    44  44  97 SE3       30.16F FOG
6HR MIN TEMP:  44; 6HR MAX TEMP:  45;

DENTON         CLOUDY    46  43  89 SE6       30.17F
6HR MIN TEMP:  46; 6HR MAX TEMP:  46;

MCKINNEY       CLOUDY    46  44  93 CALM      30.19S
6HR MIN TEMP:  46; 6HR MAX TEMP:  47;

GREENVILLE     CLOUDY    46  45  93 CALM      30.20S
ROCKWALL       CLOUDY    47  46  95 E3        30.18S
6HR MIN TEMP:  46; 6HR MAX TEMP:  47;

TERRELL        CLOUDY    49  45  86 SE3       30.19S
6HR MIN TEMP:  49; 6HR MAX TEMP:  49;

WAXAHACHIE     CLOUDY    46  46 100 CALM      30.19F FOG
6HR MIN TEMP:  46; 6HR MAX TEMP:  47;

CLEBURNE       CLOUDY    46  46 100 E3        30.18F
GRANBURY       CLOUDY    48  45  88 CALM      30.19S FOG
6HR MIN TEMP:  48; 6HR MAX TEMP:  50;

$$

TXZ083>090-098>101-113>116-127>130-139>142-154-155-210700-
WESTERN NORTH TEXAS

CITY           SKY/WX    TMP DP  RH WIND       PRES   REMARKS
WICHITA FALLS  CLOUDY    45  39  79 SE15      30.11F WCI  38
6HR MIN TEMP:  43; 6HR MAX TEMP:  45;

WF-KICKAPOO    MOCLDY    46  40  79 SE10      30.13F
6HR MIN TEMP:  45; 6HR MAX TEMP:  46;

VERNON         MOCLDY    41  37  84 SE5       30.11S WCI  38
6HR MIN TEMP:  32; 6HR MAX TEMP:  52;

ABILENE        MOCLDY    43  39  86 S10       30.11F WCI  37
6HR MIN TEMP:  43; 6HR MAX TEMP:  50;

BRECKENRIDGE   CLOUDY    47  40  75 SE9       30.13S
6HR MIN TEMP:  47; 6HR MAX TEMP:  50;

GRAHAM         MOCLDY    46  41  83 SE9       30.12F
6HR MIN TEMP:  46; 6HR MAX TEMP:  46;

MINERAL WELLS  CLOUDY    46  43  89 SE7       30.16S FOG
6HR MIN TEMP:  46; 6HR MAX TEMP:  47;

STEPHENVILLE   CLOUDY    46  42  84 SE3       30.18F
6HR MIN TEMP:  46; 6HR MAX TEMP:  47;

COMANCHE       CLOUDY    46  44  90 SE5       30.16S
6HR MIN TEMP:  45; 6HR MAX TEMP:  47;

BROWNWOOD      CLOUDY    41  39  93 CALM      30.16S
COLEMAN        CLOUDY    44  42  91 S9        30.15S WCI  39
6HR MIN TEMP:  43; 6HR MAX TEMP:  51;

BRADY          CLOUDY    41  41 100 SE5       30.13S WCI  38
$$

TXZ143>147-156>162-174-175-210700-
CENTRAL TEXAS

CITY           SKY/WX    TMP DP  RH WIND       PRES   REMARKS
WACO           CLOUDY    48  46  93 E5        30.17F
6HR MIN TEMP:  48; 6HR MAX TEMP:  49;

WACO-MCGREGOR  MOCLDY    48  43  81 E6        30.19S
6HR MIN TEMP:  48; 6HR MAX TEMP:  50;

HILLSBORO      CLOUDY    48  45  90 E8        30.17F FOG
6HR MIN TEMP:  47; 6HR MAX TEMP:  49;

CORSICANA      CLOUDY    49  43  80 S3        30.19F
6HR MIN TEMP:  49; 6HR MAX TEMP:  50;

MEXIA          CLOUDY    46  43  88 SE3       30.17F
6HR MIN TEMP:  46; 6HR MAX TEMP:  49;

HEARNE         CLOUDY    48  45  87 E5        30.20F
6HR MIN TEMP:  48; 6HR MAX TEMP:  51;

CAMERON        CLOUDY    49  46  90 SE3       30.18S
6HR MIN TEMP:  49; 6HR MAX TEMP:  51;

TEMPLE         CLOUDY    48  43  81 CALM      30.17R
6HR MIN TEMP:  48; 6HR MAX TEMP:  48;

KILLEEN        CLOUDY    47  46  97 SE6       30.16F
6HR MIN TEMP:  47; 6HR MAX TEMP:  50;

KILLEEN-SKYLRK CLOUDY    48  43  81 E3        30.16S
6HR MIN TEMP:  48; 6HR MAX TEMP:  50;

FORT HOOD      CLOUDY    48  46  95 E6        30.15F
6HR MIN TEMP:  48; 6HR MAX TEMP:  50;

GATESVILLE     MOCLDY    48  46  93 CALM      30.18F
HAMILTON       CLOUDY    47  47 100 S7        30.17S FOG
6HR MIN TEMP:  47; 6HR MAX TEMP:  49;

$$

TXZ095>097-106>112-122>126-135>138-148>153-164>167-210700-
EAST TEXAS

CITY           SKY/WX    TMP DP  RH WIND       PRES   REMARKS
PARIS          CLOUDY    46  43  87 SE5       30.20F
6HR MIN TEMP:  46; 6HR MAX TEMP:  46;

SULPHUR SPRNGS CLOUDY    48  45  90 CALM      30.22S
6HR MIN TEMP:  47; 6HR MAX TEMP:  48;

MOUNT PLEASANT CLEAR     44  43  97 CALM      30.22F
6HR MIN TEMP:  44; 6HR MAX TEMP:  48;

MINEOLA        FOG       43  43 100 CALM      30.21F VSB<1/4
TYLER          MOCLDY    43  39  86 CALM      30.19S
6HR MIN TEMP:  42; 6HR MAX TEMP:  50;

LONGVIEW       FOG       39  37  92 CALM      30.19F VSB 1/4
6HR MIN TEMP:  38; 6HR MAX TEMP:  47;

MARSHALL       CLOUDY    38  37  93 CALM      30.22F
6HR MIN TEMP:  38; 6HR MAX TEMP:  48;

ATHENS         CLEAR     37  36  93 CALM      30.19S
PALESTINE      CLEAR     41  41  99 CALM      30.20F FOG
JACKSONVILLE   PTCLDY    42  42  99 E3        30.19F FOG
HENDERSON      FOG       37  37 100 CALM      30.20F VSB 1
6HR MIN TEMP:  37; 6HR MAX TEMP:  47;

NACOGDOCHES    CLEAR     37  36  93 CALM      30.19F
6HR MIN TEMP:  37; 6HR MAX TEMP:  46;

LUFKIN         CLEAR     42  39  89 E3        30.18F FOG
6HR MIN TEMP:  42; 6HR MAX TEMP:  54;

$$

SUPPLEMENTAL OBSERVATIONS (CENTRAL)

CITY           SKY/WX    TMP DP  RH WIND       PRES   REMARKS
LAKE TEXOMA      N/A     46  41  81 S1          N/A
CADDO GRASSLND   N/A     46  43  87 S3          N/A
PAT MAYSE LAKE   N/A     45  43  93 E3          N/A
GREENVILLE       N/A     46  43  87 SE1         N/A
CEDAR HILL       N/A     46  41  81 CALM        N/A
ATHENS           N/A     43  39  87 NE2         N/A
PALESTINE        N/A     41  39  93 CALM        N/A
LAKE LIMESTONE   N/A     48  45  87 SE1         N/A
MCGREGOR         N/A     48  45  87 E1          N/A
TEMPLE           N/A     48  45  87 E3          N/A
$$

SUPPLEMENTAL OBSERVATIONS (WEST)

CITY           SKY/WX    TMP DP  RH WIND       PRES   REMARKS
MILLERS CREEK    N/A     43  37  81 S9          N/A  WCI  37



USA.gov is the U.S. government's official web portal to all federal, state and local government web resources and services.